This is the latest recevied weather packets stored in our database for station/object KC5EZZ-2. If no packets are shown the sender has not sent any weather packets the latest 10 day(s).
| Time | Temp. | Humidity | Pressure | Rain* | Wind** | Luminosity | Snow |
|---|---|---|---|---|---|---|---|
| 1787661560 | 26.11° C | - | - | 0 mm | 0.89 m/s, 184° | - | - |
| 1787661260 | 25.56° C | - | - | 0 mm | 1.34 m/s, 188° | - | - |
| 1787660961 | 25.56° C | - | - | 0 mm | 2.24 m/s, 201° | - | - |
| 1787660658 | 25.56° C | - | - | 0 mm | 1.79 m/s, 187° | - | - |
| 1787660359 | 25.56° C | - | - | 0 mm | 2.68 m/s, 193° | - | - |
| 1787660059 | 25° C | - | - | 0 mm | 1.34 m/s, 187° | - | - |
| 1787659757 | 25.56° C | - | - | 0 mm | 1.34 m/s, 219° | - | - |
| 1787659457 | 25.56° C | - | - | 0 mm | 1.79 m/s, 228° | - | - |
| 1787659157 | 25.56° C | - | - | 0 mm | 1.34 m/s, 204° | - | - |
| 1787658855 | 25.56° C | - | - | 0 mm | 2.24 m/s, 219° | - | - |
| 1787658555 | 26.11° C | - | - | 0 mm | 3.58 m/s, 184° | - | - |
| 1787658290 | 26.11° C | - | - | 0 mm | 3.58 m/s, 201° | - | - |
| 1787658256 | 26.11° C | - | - | 0 mm | 3.58 m/s, 201° | - | - |
| 1787657953 | 26.11° C | - | - | 0 mm | 3.13 m/s, 183° | - | - |
| 1787657653 | 26.11° C | - | - | 0 mm | 3.13 m/s, 158° | - | - |
| 1787657354 | 26.11° C | - | - | 0 mm | 4.02 m/s, 181° | - | - |
| 1787657051 | 26.11° C | - | - | 0 mm | 3.58 m/s, 195° | - | - |
| 1787656752 | 26.11° C | - | - | 0 mm | 4.02 m/s, 180° | - | - |
| 1787656727 | 23.33° C | - | - | 0 mm | 0 m/s | - | - |
| 1787656452 | 26.11° C | - | - | 0 mm | 4.47 m/s, 170° | - | - |
| 1787656150 | 26.11° C | - | - | 0 mm | 4.47 m/s, 188° | - | - |
| 1787655850 | 26.11° C | - | - | 0 mm | 4.02 m/s, 195° | - | - |
| 1787655550 | 26.11° C | - | - | 0 mm | 4.02 m/s, 198° | - | - |
| 1787655216 | 23.89° C | - | - | 0 mm | 0 m/s | - | - |
| 1787654948 | 26.11° C | - | - | 0 mm | 4.02 m/s, 172° | - | - |
* Rain latest hour (hover to see other rain measurements)
** Current wind speed in m/s (hover to see current wind gust speed)